User: anonymous   Login
Location: La Pernelle
(49.6188°N, 1.2999°W)
Time: 08:28:23
(UTC+00:00)
Language:

Cosmos 967 Rocket - Orbit

View from above orbital plane
View from above orbital plane
View from above satellite
View from above satellite

Ground track
Ground track

The orbit data is extracted from the following two-line orbital elements,

1 10513U 77116B   21267.93690130 -.00000031  00000-0  49398-4 0  9993
2 10513  65.8327 207.6837 0030267 329.0653  91.1312 13.78574590202855
Epoch (UTC): 24 September 2021 22:29:08
Eccentricity: 0.0030267
inclination: 65.8327°
perigee height: 947 km
apogee height: 991 km
right ascension of ascending node: 207.6837°
argument of perigee: 329.0653°
revolutions per day: 13.78574590
mean anomaly at epoch: 91.1312°
orbit number at epoch: 20285

The dashed part of the orbit path shows where the satellite is in the earth's shadow,  

DLR